This demonstration page uses our WeatherBlox Daily Observations layout. Learn more.

Left ArrowRight Arrow

38.80484, -77.04692

Hourly Observations for December 2, 2020

Temp ( °F °C ) Dew Point ( °F °C ) Humidity (%) Winds ( mph kmh ) Pressure ( in mb ) Visibility ( mi km ) Precip ( " mm )
12:52 am 00:52 Mostly Cloudy 41 5 21 -6.1 45 45 W 12 19 29.96 1014 10 16 0.00 0.00
1:52 am 01:52 Mostly Cloudy 40 4.4 21 -6.1 47 47 WSW 8 13 29.96 1015 10 16 0.00 0.00
2:52 am 02:52 Partly Cloudy 37 2.8 24 -4.4 59 59 SW 9 15 29.97 1015 10 16 0.00 0.00
3:52 am 03:52 Mostly Cloudy 36 2.2 25 -3.9 64 64 SW 7 11 29.98 1015 10 16 0.00 0.00
4:52 am 04:52 Cloudy 38 3.3 24 -4.4 57 57 SSW 8 13 30.00 1016 10 16 0.00 0.00
5:52 am 05:52 Mostly Cloudy 38 3.3 24 -4.4 57 57 SW 8 13 30.01 1016 10 16 0.00 0.00
6:52 am 06:52 Mostly Cloudy 39 3.9 25 -3.9 57 57 SSW 8 13 30.03 1017 10 16 0.00 0.00
7:52 am 07:52 Mostly Cloudy 37 2.8 25 -3.9 62 62 SSW 9 15 30.05 1018 10 16 0.00 0.00
8:52 am 08:52 Mostly Cloudy 40 4.4 26 -3.3 58 58 SW 9 15 30.08 1019 10 16 0.00 0.00
9:52 am 09:52 Mostly Cloudy 42 5.6 26 -3.3 53 53 W 12 19 30.11 1020 10 16 0.00 0.00
10:52 am 10:52 Partly Cloudy 44 6.7 25 -3.9 47 47 WNW 16 26 30.11 1020 10 16 0.00 0.00
11:52 am 11:52 Mostly Sunny 46 7.8 26 -3.3 46 46 WNW 24 39 30.11 1020 10 16 0.00 0.00
12:52 pm 12:52 Mostly Sunny 47 8.3 25 -3.9 42 42 WNW 15 24 30.10 1019 10 16 0.00 0.00
1:52 pm 13:52 Sunny 48 8.9 23 -5 37 37 WNW 16 26 30.11 1020 10 16 0.00 0.00
2:52 pm 14:52 Sunny 50 10 22 -5.6 33 33 NW 8 13 30.13 1020 10 16 0.00 0.00
3:52 pm 15:52 Mostly Sunny 49 9.4 19 -7.2 31 31 WNW 14 22 30.16 1021 10 16 0.00 0.00
4:52 pm 16:52 Mostly Clear 47 8.3 20 -6.7 34 34 WNW 10 17 30.19 1022 10 16 0.00 0.00
5:52 pm 17:52 Clear 46 7.8 17 -8.3 31 31 WNW 9 15 30.21 1023 10 16 0.00 0.00
6:52 pm 18:52 Clear 44 6.7 18 -7.8 35 35 W 14 22 30.22 1024 10 16 0.00 0.00
7:52 pm 19:52 Clear 43 6.1 17 -8.3 35 35 WNW 7 11 30.23 1024 10 16 0.00 0.00
8:52 pm 20:52 Clear 42 5.6 18 -7.8 38 38 NW 7 11 30.24 1024 10 16 0.00 0.00
9:52 pm 21:52 Clear 41 5 18 -7.8 39 39 NW 7 11 30.24 1024 10 16 0.00 0.00
10:52 pm 22:52 Clear 41 5 18 -7.8 39 39 WNW 8 13 30.26 1025 10 16 0.00 0.00
11:52 pm 23:52 Clear 39 3.9 18 -7.8 43 43 NW 5 7 30.26 1025 10 16 0.00 0.00

Powered by AerisWeather